Weather in Kas

Turkey     36°11′55″N   29°38′24″E
temp.,
°C
wind,
m/s
gust,
m/s
humid.,
%
clouds,
%
prec.,
mm/h
press.,
hPa
HPBL,
m
28 june, tue
tue2800:00+21nnw22470 0.0 100918
03:00+21n22430 0.0 100917
06:00+20nnw22460 0.0 100822
09:00+27ssw22320 0.0 1008896
12:00+29ssw643249 0.0 10081889
15:00+27sw443632 0.0 10081025
18:00+27sw443516 0.0 1008744
21:00+23nw114559 0.0 100814
29 june, wed
wed2900:00+21nnw22500 0.0 100915
03:00+21nnw22510 0.0 100817
06:00+21nnw22530 0.0 100717
09:00+27se21370 0.0 1007797
12:00+29sse43313 0.0 10081523
15:00+28ssw333453 0.0 10071056
18:00+28sw33366 0.0 1007885
21:00+23nw11503 0.0 100715
30 june, thu
thu3000:00+22n21530 0.0 100812
03:00+21nnw22530 0.0 100714
06:00+21nnw22530 0.0 100716
09:00+28s21360 0.0 1007822
12:00+30s433448 0.0 10071756
15:00+28sw334099 0.0 1007529
18:00+27wnw124399 0.0 1007236
21:00+24nw225129 0.0 100725
1 july, fri
fri100:00+24nnw225114 0.0 100720
03:00+23nnw22500 0.0 100620
06:00+23nnw32480 0.0 100621
09:00+30ese11330 0.0 1006811
12:00+32s43321 0.0 10061729
15:00+32ssw432924 0.0 10061729
18:00+30sw343224 0.0 1006785
21:00+25n22460 0.0 100617
2 july, sat
sat200:00+24n22450 0.0 100722
03:00+24nnw22430 0.0 100620
06:00+23nnw32470 0.0 100626
09:00+31se11300 0.0 1006957
12:00+32ssw54310 0.0 10071580
15:00+32sw54319 0.0 10061565
18:00+31sw32323 0.0 10061254
21:00+26nw33440 0.0 100732